[[{"header":{"parameterUnit":"m.s-1","parameterCategory":1,"la1":30.2991,"la2":30.254,"lo1":-89.0895,"lo2":-89.0444,"dy":0.0017,"dx":0.0017,"nx":28,"ny":28,"refTime":"2024-07-06T03:00:00:Z","depth":0,"parameterNumber":2,"parameterNumberName":"U-component_of_WINDS"},"data":[0,0,0,0,0,0,0,0,0,0,0,0,0,0,0,0,0,0,0,0,0,0,0,0,0,0,0,0,0,0,0,0,0,0,0,0,0,0,0,0,0,0,0,0,0,0,0,0,0,0,0,0,0,0,0,0,0,0,1.7841,1.7841,0,1.7856,1.7856,1.7857,1.786,1.7859,1.7859,1.7859,1.7874,1.7874,1.7875,0,0,0,0,0,0,0,0,0,0,0,0,0,1.7815,1.7816,1.7841,1.7841,1.7841,1.7856,1.7856,1.7857,1.786,1.7859,1.7859,1.7859,1.7874,1.7874,1.7875,0,0,0,0,0,0,0,0,0,0,0,0,0,1.7828,1.7816,1.7841,1.7845,1.7845,1.7856,1.7856,1.7857,1.786,1.7859,1.7859,1.7859,1.7874,1.7874,1.7875,1.7883,0,0,1.7877,1.7878,0,0,0,0,0,0,0,0,1.7827,1.7829,1.7844,1.7845,1.7845,1.7856,1.7853,1.7866,1.786,1.7854,1.7859,1.7859,1.7868,1.7869,1.7872,1.7884,1.7884,1.7877,1.7878,1.7878,1.7878,0,0,0,0,0,0,0,1.7826,1.7828,1.7847,1.7844,1.7845,1.7846,1.7847,1.7855,1.7862,1.7855,1.7855,1.7857,1.7868,1.7872,1.7873,1.7885,1.7877,1.7878,1.7878,1.7879,1.7906,1.7906,0,0,0,0,0,0,1.7825,1.7827,1.7847,1.7848,1.7836,1.7846,1.7848,1.7853,1.7862,1.7863,1.7857,1.7857,1.787,1.7872,1.7873,1.7884,1.7878,1.7879,1.7879,1.7905,1.7906,1.7906,0,0,0,0,0,0,1.7824,1.7826,1.7846,1.7838,1.784,1.7847,1.7852,1.7853,1.7856,1.7863,1.7865,1.7859,1.787,1.7872,1.7881,1.7885,1.7879,1.788,1.7905,1.7905,1.7906,1.7906,0,0,0,0,0,0,1.7823,1.7826,1.7829,1.7838,1.7841,1.7853,1.7852,1.7853,1.7858,1.7858,1.7866,1.7867,1.787,1.788,1.7882,1.7886,1.788,1.7905,1.7905,1.7906,1.7905,1.7906,1.7907,0,0,0,0,0,1.7823,1.7828,1.7829,1.7831,1.7844,1.7853,1.7855,1.7859,1.7858,1.7861,1.7866,1.7867,1.7884,1.7881,1.7883,1.7887,1.7904,1.7905,1.7906,1.7905,1.7906,1.7907,0,0,0,0,0,0,1.7818,1.7829,1.783,1.7839,1.7845,1.7854,1.7858,1.786,1.7866,1.7866,1.7871,1.7873,1.7881,1.7885,1.7881,1.7897,1.7894,1.7895,1.7893,1.7894,1.7895,1.7893,1.7881,0,0,0,0,0,1.7819,1.7825,1.7834,1.7841,1.7844,1.785,1.7854,1.7857,1.7864,1.7867,1.7872,1.7879,1.7886,1.789,1.7897,1.7907,1.7909,1.7911,1.7911,1.7912,1.7912,1.7919,1.792,1.7908,1.7908,1.7908,0,0,1.7818,1.7825,1.7829,1.784,1.7845,1.7852,1.7853,1.7859,1.7865,1.7868,1.7877,1.7881,1.7889,1.7899,1.7903,1.7902,1.7917,1.7913,1.7913,1.7913,1.792,1.7921,1.7922,1.7908,1.7908,1.7908,0,0,1.7822,1.7828,1.7834,1.7841,1.7849,1.7854,1.7856,1.7865,1.7868,1.7877,1.788,1.7887,1.7899,1.7905,1.7909,1.7918,1.7919,1.7921,1.7923,1.793,1.7931,1.7932,1.7935,1.7936,1.7921,1.7921,1.7921,0,1.7821,1.7832,1.7837,1.7845,1.785,1.7855,1.7862,1.7867,1.7877,1.7881,1.788,1.7897,1.7902,1.7914,1.7916,1.792,1.7922,1.7919,1.793,1.7931,1.7932,1.7936,1.7937,1.7921,1.7921,1.7921,1.7921,0,1.783,1.7838,1.7842,1.7853,1.7859,1.7866,1.7874,1.7879,1.7882,1.7887,1.7898,1.7905,1.7914,1.7917,1.792,1.793,1.7929,1.7929,1.7927,1.7933,1.7937,1.7938,1.7921,1.7921,1.7921,1.7921,0,0,1.7829,1.7846,1.7847,1.7853,1.7864,1.787,1.7878,1.7888,1.7893,1.7901,1.7908,1.7919,1.792,1.7926,1.7929,1.7935,1.7943,1.7934,1.7935,1.7936,1.7955,1.7955,1.7956,1.7944,1.7944,1.7945,1.7955,0,1.7835,1.7849,1.7856,1.7868,1.7876,1.7881,1.7889,1.7897,1.7902,1.791,1.7916,1.7924,1.7925,1.7928,1.7934,1.794,1.7946,1.794,1.7951,1.7951,1.7948,1.7958,1.7957,1.7966,1.7956,1.7956,1.7956,0,1.7842,1.7851,1.7864,1.7876,1.788,1.7886,1.7896,1.7904,1.7913,1.7917,1.7925,1.7928,1.7938,1.7936,1.795,1.7946,1.7951,1.7955,1.7956,1.7956,1.7954,1.7958,1.7969,1.797,1.7958,1.7958,1.7958,0,1.784,1.7856,1.7866,1.7871,1.7885,1.789,1.7896,1.7906,1.7912,1.7921,1.7925,1.7936,1.7941,1.7949,1.7956,1.7954,1.797,1.7968,1.7973,1.7973,1.7975,1.7975,1.7986,1.7979,1.7979,1.7979,1.7979,0,1.7845,1.7853,1.7866,1.7872,1.7881,1.789,1.7899,1.7905,1.7914,1.7922,1.7928,1.7935,1.7944,1.7953,1.7959,1.797,1.7972,1.7976,1.7977,1.7975,1.7975,1.7978,1.7977,1.798,1.798,1.798,1.798,0,1.7844,1.7853,1.7865,1.7878,1.7882,1.7888,1.79,1.7907,1.7914,1.7924,1.7927,1.7937,1.7948,1.7957,1.797,1.7974,1.7986,1.7988,1.7983,1.7983,1.7988,1.7987,1.8001,1.8004,1.7996,1.7996,1.7996,0,1.7846,1.7853,1.7868,1.7874,1.788,1.789,1.7896,1.7906,1.7912,1.7925,1.7931,1.7942,1.7952,1.7969,1.7978,1.7989,1.7991,1.7995,1.7993,1.7991,1.7991,1.7991,1.7992,1.7995,1.7995,1.7995,1.7995,0,1.7849,1.7854,1.7864,1.7876,1.7884,1.7893,1.7903,1.7908,1.7919,1.7926,1.7938,1.7946,1.7961,1.7973,1.7985,1.7992,1.7996,1.7996,1.7998,1.7996,1.7993,1.7995,1.7983,1.7996,1.7996,1.7996,1.7996,1.7996,1.785,1.7856,1.7868,1.7879,1.7888,1.7898,1.7905,1.7914,1.7924,1.7937,1.7942,1.7954,1.7966,1.7983,1.7991,1.8001,1.8001,1.8003,1.8004,1.8004,1.8004,1.7992,1.8003,1.8003,1.8003,1.8003,1.8003,0,1.7853,1.7862,1.7872,1.7886,1.7895,1.7899,1.7911,1.7918,1.7929,1.794,1.795,1.7964,1.7976,1.7987,1.8,1.8006,1.8008,1.8009,1.8008,1.801,1.8003,1.8,1.8007,1.8007,1.8007,1.8007,1.8007,1.8007,1.7856,1.7867,1.7874,1.789,1.7899,1.7911,1.7918,1.7927,1.7936,1.7952,1.7962,1.797,1.7981,1.7995,1.8006,1.8009,1.8014,1.8014,1.8017,1.8011,1.801,1.8009,1.8007,1.8015,1.8015,1.8023,1.8023,1.8023]},{"header":{"parameterUnit":"m.s-1","parameterCategory":1,"la1":30.2991,"la2":30.254,"lo1":-89.0895,"lo2":-89.0444,"dy":0.0017,"dx":0.0017,"nx":28,"ny":28,"refTime":"2024-07-06T03:00:00:Z","depth":0,"parameterNumber":3,"parameterNumberName":"V-component_of_WINDS"},"data":[0,0,0,0,0,0,0,0,0,0,0,0,0,0,0,0,0,0,0,0,0,0,0,0,0,0,0,0,0,0,0,0,0,0,0,0,0,0,0,0,0,0,0,0,0,0,0,0,0,0,0,0,0,0,0,0,0,0,0.0631,0.0631,0,0.0642,0.0642,0.0642,0.0666,0.0667,0.0667,0.0668,0.0677,0.0676,0.0676,0,0,0,0,0,0,0,0,0,0,0,0,0,0.063,0.063,0.0631,0.0631,0.0631,0.0642,0.0642,0.0642,0.0666,0.0667,0.0668,0.0668,0.0677,0.0676,0.0676,0,0,0,0,0,0,0,0,0,0,0,0,0,0.0634,0.063,0.0631,0.0645,0.0646,0.0642,0.0642,0.0642,0.0666,0.0667,0.0668,0.0668,0.0677,0.0677,0.0676,0.0658,0,0,0.0675,0.0675,0,0,0,0,0,0,0,0,0.0634,0.0634,0.0643,0.0644,0.0646,0.0654,0.0645,0.0647,0.0666,0.0659,0.0668,0.0669,0.0668,0.0669,0.0669,0.0659,0.0659,0.0675,0.0675,0.0675,0.0674,0,0,0,0,0,0,0,0.0634,0.0634,0.0635,0.0643,0.0645,0.065,0.0651,0.0645,0.0659,0.0659,0.0661,0.0662,0.0669,0.0669,0.0669,0.0659,0.0675,0.0675,0.0674,0.0674,0.0633,0.0633,0,0,0,0,0,0,0.0632,0.0634,0.0635,0.0636,0.0642,0.0649,0.0651,0.065,0.0659,0.0661,0.0661,0.0663,0.0669,0.067,0.067,0.0648,0.0675,0.0674,0.0674,0.0634,0.0633,0.0632,0,0,0,0,0,0,0.0632,0.0632,0.0635,0.0635,0.0636,0.0648,0.0647,0.065,0.065,0.0661,0.0663,0.0659,0.067,0.067,0.0661,0.0649,0.0674,0.0674,0.0635,0.0634,0.0633,0.0606,0,0,0,0,0,0,0.0632,0.0632,0.0626,0.0635,0.0636,0.0626,0.0647,0.065,0.065,0.0652,0.0659,0.0661,0.0671,0.0661,0.066,0.0649,0.0673,0.0636,0.0635,0.0633,0.0608,0.0604,0.06,0,0,0,0,0,0.0632,0.0618,0.0625,0.0625,0.0629,0.0625,0.0626,0.0638,0.0649,0.0642,0.0649,0.0661,0.065,0.066,0.0659,0.0647,0.0637,0.0635,0.0633,0.061,0.0605,0.06,0,0,0,0,0,0,0.0606,0.0619,0.0628,0.0616,0.062,0.063,0.0622,0.0632,0.0632,0.0635,0.0649,0.065,0.0638,0.0642,0.0653,0.063,0.0646,0.0643,0.0628,0.0623,0.062,0.0618,0.0673,0,0,0,0,0,0.0599,0.0596,0.0608,0.0596,0.0598,0.0609,0.0609,0.0617,0.0621,0.0622,0.0628,0.0631,0.0628,0.0626,0.0624,0.0609,0.061,0.06,0.0596,0.0593,0.0591,0.0581,0.0577,0.0626,0.0626,0.0626,0,0,0.0585,0.0592,0.0589,0.0591,0.0595,0.0591,0.061,0.0605,0.0602,0.0621,0.0613,0.0617,0.0621,0.0608,0.0603,0.0611,0.0578,0.0591,0.0588,0.0588,0.0579,0.0574,0.057,0.0625,0.0625,0.0625,0,0,0.0556,0.0562,0.0553,0.0556,0.0561,0.0569,0.0566,0.0575,0.0578,0.057,0.0584,0.058,0.0575,0.0577,0.0577,0.0548,0.0559,0.0547,0.0527,0.0518,0.0514,0.0511,0.0499,0.0495,0.0545,0.0545,0.0545,0,0.0538,0.0533,0.0546,0.054,0.054,0.0558,0.0548,0.055,0.0554,0.0554,0.0563,0.0556,0.056,0.0547,0.054,0.054,0.0537,0.0546,0.0514,0.051,0.0507,0.0496,0.0492,0.0543,0.0544,0.0544,0.0544,0,0.0509,0.0505,0.0496,0.05,0.0499,0.0491,0.0503,0.05,0.0509,0.0515,0.0506,0.0511,0.051,0.0508,0.0516,0.0495,0.05,0.0511,0.0527,0.0501,0.0491,0.0487,0.0541,0.0542,0.0542,0.0543,0,0,0.0464,0.0475,0.0472,0.0473,0.048,0.0477,0.0469,0.0468,0.0465,0.0467,0.046,0.0455,0.0465,0.0466,0.0474,0.0466,0.0441,0.0478,0.0479,0.047,0.0417,0.0408,0.0403,0.0449,0.0448,0.0447,0.0416,0,0.0437,0.0425,0.0436,0.0421,0.0417,0.0434,0.0426,0.0429,0.0435,0.0431,0.0437,0.0433,0.0447,0.0447,0.044,0.0446,0.0431,0.0448,0.0441,0.044,0.0438,0.0398,0.0388,0.0359,0.0413,0.0412,0.0412,0,0.0403,0.0403,0.0388,0.0395,0.0393,0.0387,0.0386,0.0383,0.0386,0.0391,0.039,0.0401,0.0393,0.0409,0.0396,0.0408,0.0406,0.0408,0.0407,0.0406,0.0424,0.0395,0.035,0.0345,0.0406,0.0406,0.0407,0,0.0371,0.0367,0.0358,0.0358,0.0366,0.0361,0.0364,0.0368,0.0366,0.0366,0.0365,0.0363,0.0362,0.036,0.0369,0.038,0.0355,0.0372,0.0357,0.0357,0.0351,0.0351,0.0304,0.0351,0.0351,0.0351,0.0351,0,0.0338,0.0327,0.0343,0.0337,0.0325,0.0338,0.0326,0.0331,0.0334,0.0328,0.0342,0.0336,0.035,0.0344,0.0352,0.034,0.0339,0.0342,0.0344,0.034,0.0339,0.0338,0.034,0.035,0.035,0.035,0.035,0,0.03,0.031,0.03,0.0308,0.031,0.0301,0.0307,0.0301,0.0308,0.03,0.0299,0.0309,0.0303,0.0313,0.0309,0.0313,0.0296,0.0302,0.0295,0.0296,0.0281,0.0281,0.023,0.0224,0.0276,0.0275,0.0275,0,0.0278,0.027,0.0277,0.0275,0.0277,0.0272,0.0271,0.0283,0.0281,0.0283,0.0276,0.0272,0.027,0.026,0.0266,0.0263,0.0268,0.025,0.0267,0.0263,0.0266,0.0266,0.0265,0.0246,0.0246,0.0245,0.0245,0,0.0237,0.0242,0.024,0.0239,0.0237,0.0236,0.0237,0.0234,0.0247,0.0243,0.0238,0.0236,0.0232,0.0227,0.0225,0.0227,0.0237,0.0239,0.0236,0.0231,0.0227,0.0228,0.0284,0.024,0.0241,0.0241,0.0241,0.0241,0.0206,0.0199,0.0203,0.0199,0.0201,0.0201,0.0196,0.0201,0.0198,0.0195,0.0203,0.0195,0.0197,0.0196,0.0196,0.019,0.0198,0.0193,0.0191,0.0189,0.0186,0.0229,0.019,0.019,0.019,0.0191,0.0191,0,0.0165,0.0168,0.0165,0.0165,0.0162,0.0173,0.0174,0.017,0.0164,0.0165,0.0162,0.0156,0.0151,0.0157,0.0153,0.0146,0.0151,0.0145,0.0145,0.0145,0.018,0.0184,0.0141,0.0141,0.0141,0.0141,0.0141,0.0141,0.0143,0.0132,0.0138,0.0127,0.0131,0.0124,0.0124,0.0123,0.0124,0.0116,0.0113,0.0117,0.0119,0.0115,0.0111,0.0113,0.011,0.0102,0.0105,0.0138,0.0143,0.0147,0.015,0.0101,0.0101,0.007,0.007,0.0069]}]]